sat.trackr.live / text

‹ back to catalog

SALSAT

NORAD 46495 · 2020-068K

PAYLOAD ACTIVE UNKNOWN

§ Identity

Operator
Country
GER
Launch date
2020-09-28
Launch site
PLMSC
Launch vehicle
Mass (kg)
RCS (m²)

Purposes: comms, science, tech_demo

External: N2YO · Heavens-Above · Gunter

§ Orbital elements

Epoch: 2026-09-20T00:25:08.269248Z

Period
94.06 min
Inclination
97.8892°
Eccentricity
0.0008600
Mean motion
15.30977638 rev/d
Perigee alt
467.0 km
Apogee alt
478.8 km
Semi-major
6,851.0 km
B*
1.7393e-4
RAAN
271.9626°
Arg perigee
339.9405°
Mean anomaly
20.1496°
Rev number
32,986

§ Raw data

SALSAT1 46495U 20068K   26263.01745682  .00005124  00000+0  17393-3 0  99932 46495  97.8892 271.9626 0008600 339.9405  20.1496 15.30977638329862

JSON: /api/v1/satellites/46495 · /tle

For live sub-satellite position, see the globe view (requires WebGL).

§ Visibility from observer

Set your observer location to see the next 7 days of passes ≥ 10°. The values pass through the URL so the page stays shareable.

No JS? Fill the form by hand. The geolocation button needs JavaScript.

§ Radio — SatNOGS DB

ModeDescriptionDownlinkUplink
AFSK TUBiX10 AFSK 1k2 TLM 435.950 MHz
BPSK BPSK 2.266 GHz

2 transmitters · refreshed weekly from db.satnogs.org